Jackson, KY

9:57 AM EDT on August 27, 2016 (GMT -0400)
Carroll

Weather History for KJKL - May, 2014

Change the Weather History Date:

Monday, May 19, 2014

  Actual Average Record
Temperature  
Mean Temperature 60 °F 65 °F  
Max Temperature 72 °F 75 °F 88 °F (1996)
Min Temperature 48 °F 55 °F 36 °F (2002)
Degree Days  
Heating Degree Days 5 3  
Month to date heating degree days 78 75  
Since 1 July heating degree days 4508 4196  
Cooling Degree Days 0 3  
Month to date cooling degree days 74 46  
Year to date cooling degree days 113 92  
Growing Degree Days 10 (Base 50)    
Moisture  
Dew Point 37 °F    
Average Humidity 46    
Maximum Humidity 63    
Minimum Humidity 28    
Precipitation  
Precipitation 0.00 in 0.17 in 0.96 in (2005)
Month to date precipitation 1.21 3.12  
Year to date precipitation 19.77 18.43  
Snow  
Snow 0.00 in 0.00 in - ()
Month to date snowfall 0.0 0.0  
Since 1 July snowfall 38.9 23.5  
Snow Depth 0.00 in    
Sea Level Pressure  
Sea Level Pressure 30.23 in    
Wind  
Wind Speed 1 mph (ESE)    
Max Wind Speed 7 mph    
Max Gust Speed 10 mph    
Visibility 10 miles    
Events      
T = Trace of Precipitation, MM = Missing Value Source: NWS Daily Summary

Daily Weather History Graph

Daily Weather History Graph

Search for Another Location

Airport or City:

Trip Planner

Search our weather history database for the weather conditions in past years. The results will help you decide how hot, cold, wet, or windy it might be!

Date:

Astronomy

May. 19, 2014 Rise Set
Actual Time 6:20 AM EDT 8:39 PM EDT
Civil Twilight 5:51 AM EDT 9:08 PM EDT
Nautical Twilight 5:14 AM EDT 9:45 PM EDT
Astronomical Twilight 4:34 AM EDT 10:25 PM EDT
Moon 12:27 AM EDT (5/19) 11:15 AM EDT (5/19)
Length of Visible Light 15h 17m
Length of Day
14h 18m
Waning Gibbous, 71% of the Moon is Illuminated
May 19
Waning Gibbous
May 21
Last Quarter
May 28
New
Jun 5
First Quarter
Jun 13
Full

Hourly Weather History & Observations

Time (EDT) Temp. Dew Point Humidity Pressure Visibility Wind Dir Wind Speed Gust Speed Precip Events Conditions
12:53 AM 52.0 °F 35.1 °F 53% 30.24 in 10.0 mi Calm Calm - N/A   Clear
1:53 AM 51.1 °F 35.1 °F 54% 30.23 in 10.0 mi Variable 3.5 mph - N/A   Clear
2:53 AM 48.9 °F 36.0 °F 61% 30.23 in 10.0 mi Calm Calm - N/A   Clear
3:53 AM 48.9 °F 35.1 °F 59% 30.24 in 10.0 mi Calm Calm - N/A   Clear
4:53 AM 48.9 °F 35.1 °F 59% 30.25 in 10.0 mi Calm Calm - N/A   Clear
5:53 AM 48.9 °F 35.1 °F 59% 30.26 in 10.0 mi Calm Calm - N/A   Clear
6:53 AM 48.0 °F 35.1 °F 61% 30.27 in 10.0 mi Calm Calm - N/A   Clear
7:53 AM 50.0 °F 37.9 °F 63% 30.29 in 10.0 mi Calm Calm - N/A   Clear
9:53 AM 57.0 °F 41.0 °F 55% 30.30 in 10.0 mi Calm Calm - N/A   Clear
10:53 AM 62.1 °F 39.9 °F 44% 30.30 in 10.0 mi Calm Calm - N/A   Clear
11:53 AM 64.9 °F 39.0 °F 39% 30.28 in 10.0 mi Calm Calm - N/A   Clear
12:53 PM 64.9 °F 34.0 °F 32% 30.27 in 10.0 mi Calm Calm - N/A   Clear
1:53 PM 66.2 °F 35.6 °F 32% 30.26 in 10.0 mi Variable 3.5 mph - N/A   Clear
2:53 PM 71.1 °F 39.9 °F 32% 30.22 in 10.0 mi Variable 3.5 mph - N/A   Clear
3:53 PM 70.0 °F 39.0 °F 32% 30.21 in 10.0 mi Calm Calm - N/A   Clear
4:53 PM 70.0 °F 36.0 °F 29% 30.20 in 10.0 mi Calm Calm - N/A   Clear
5:53 PM 71.1 °F 37.9 °F 30% 30.20 in 10.0 mi Variable 3.5 mph - N/A   Clear
6:53 PM 69.1 °F 37.0 °F 31% 30.19 in 10.0 mi Calm Calm - N/A   Clear
7:53 PM 66.9 °F 37.9 °F 34% 30.19 in 10.0 mi Calm Calm - N/A   Clear
8:53 PM 64.9 °F 36.0 °F 34% 30.17 in 10.0 mi Calm Calm - N/A   Clear
9:53 PM 62.1 °F 39.9 °F 44% 30.16 in 10.0 mi Variable 3.5 mph - N/A   Clear
10:53 PM 61.0 °F 41.0 °F 48% 30.15 in 10.0 mi Variable 3.5 mph - N/A   Clear
11:53 PM 60.1 °F 39.9 °F 47% 30.15 in 10.0 mi ESE 4.6 mph - N/A   Clear